Погода в Моздоке

Россия / Республика Северная Осетия — Алания     43°44′07″N   44°39′13″E
темп.,
°C
ветер,
м/с
пор.,
м/с
влажн.,
%
обл.,
%
осадки,
мм/ч
давл.,
гПа
погр.,
м
9 мая, вс
вс900:00+11вюв348658 0.0 101165
03:00+10всв229397 0.0 100925
06:00+13ссв118897 0.0 100955
09:00+18сз346845 0.0 1009589
12:00+22ссз5453100 0.0 10081361
15:00+19зсз101068100 0.1 10091139
18:00+9зсз111886100 1.5 1015933
21:00+7зсз91687100 3.7 10201066
10 мая, пн
пн1000:00+8з71381100 1.4 10211005
03:00+8з61478100 1.4 1021853
06:00+8з51173100 0.0 1022912
09:00+12зсз7105260 0.1 10211927
12:00+14сз794497 0.1 10202144
15:00+15зсз584084 0.1 10182327
18:00+12з795688 0.0 1020474
21:00+9з697196 0.0 1021254
11 мая, вт
вт1100:00+7юз3684100 0.0 1020102
03:00+7з008199 0.0 101910
06:00+7вюв248069 0.0 1019139
09:00+13в5858100 0.0 10181173
12:00+16в5648100 0.0 10171693
15:00+18вюв344336 0.0 10162012
18:00+15вюв51054100 0.0 1017388
21:00+10вюв410697 0.0 1018233
12 мая, ср
ср1200:00+7вюв36834 0.0 101894
03:00+7вюв359296 0.0 101886
06:00+8в25875 0.0 1018153
09:00+15в45600 0.0 1018855
12:00+19в45480 0.0 10171380
15:00+21вюв34460 0.0 10161509
18:00+19вюв22610 0.0 101647
21:00+14юв34755 0.0 101753
13 мая, чт
чт1300:00+11вюв34835 0.0 101747
03:00+10вюв22865 0.0 101618
06:00+12в23800 0.0 101794
09:00+18в44595 0.0 1017563
12:00+23в45505 0.0 1016935
15:00+25вюв454441 0.0 10151290
18:00+23вюв226097 0.0 101530
21:00+16вюв358056 0.0 101670